Weather in Mikhalkovo

Russia / Ivanovo Oblast     56°53′35″N   41°32′07″E
temp.,
°C
wind,
m/s
gust,
m/s
humid.,
%
clouds,
%
prec.,
mm/h
press.,
hPa
HPBL,
m
3 march, wed
wed300:00−5nw5138831 0.0 1006546
03:00−7nw6139040 0.0 1009515
06:00−8nw6139298 0.0 1010488
09:00−7nw5119199 0.1 1011519
12:00−4nw6108595 0.0 1010696
15:00−2w6108965 0.1 1009837
18:00−2w51293100 0.2 1006703
21:00−2w51196100 0.4 1005592
4 march, thu
thu400:00−3wsw51295100 0.2 1002636
03:00−2wsw61395100 0.4 1000745
06:00−2wsw5129399 0.1 996520
09:00−1wnw71180100 0.8 9951156
12:00−2wnw7118467 0.1 996944
15:00−2wnw588783 0.2 998877
18:00−4wnw4991100 0.1 999322
21:00−6nnw3795100 0.1 1000212
5 march, fri
fri500:00−11n349365 0.0 100180
03:00−12nnw339549 0.0 100361
06:00−14nnw23940 0.0 100552
09:00−11nnw23890 0.0 1006141
12:00−6wnw12760 0.0 1007426
15:00−5sw237637 0.0 1008732
18:00−7sw239199 0.0 100833
21:00−9sw239484 0.0 101052
6 march, sat
sat600:00−10wnw359698 0.1 1010101
03:00−13nw369681 0.1 1011140
06:00−15nw499455 0.0 1012239
09:00−14nw489169 0.0 1013332
12:00−11nw468260 0.0 1014699
15:00−10nw478078 0.0 1014965
18:00−11w2296100 0.1 101353
21:00−13wsw339683 0.2 101259
7 march, sun
sun700:00−13ssw369678 0.0 1010137
03:00−13ssw5119463 0.0 1006277
06:00−10ssw71393100 0.2 1002769
09:00−7ssw81492100 0.8 996965
12:00−4ssw91593100 1.1 9921098
15:00−2ssw81392100 2.8 9901093
18:00−7w41090100 1.8 990508
21:00−9wsw498683 1.9 991208